Location: Castiglione Fibocchi
(43.5333°N, 11.7667°E)
Time: 16:17:34
(UTC+00:00)

COSMOS 2406 - Pass Details

Date: 15 August 2020
Orbit: 845 x 862 km, 71.0° (Epoch: 19 September)

Event Time Altitude Azimuth Distance (km) Brightness Sun altitude
Rises 03:30:46 0° 336° (NNW) 3,423 6.4 -8.6°
Reaches altitude 10° 03:33:15 10° 339° (NNW) 2,481 5.7 -8.2°
Maximum altitude 03:38:56 72° 63° (ENE) 892 3.6 -7.3°
Drops below altitude 10° 03:44:35 10° 148° (SSE) 2,460 5.7 -6.4°
Sets 03:47:02 0° 151° (SSE) 3,391 6.4 -6.0°
